ZQ-2E DEB, 69633

Orbit data source: Space-Track

ZQ-2E DEB, 69633 is space debris in LEO originally from a launch on Tue, 09 Jun 2026 UTC launched from the Jiuquan Satellite Launch Center, China (JSC). Debris objects in space refer to the collection of defunct objects orbiting the Earth. Examples of debris include non-operational satellites, rocket bodies, and fragments generated from explosions, collisions, or faulty payload assembly.

Not visible in the next 10 days
Identifier
69633, 2026-128H
Orbit
LEO
Country
Flag of CNCN / PRC
Related business
Flag of CNLandspace (CN)
Manufacturer
Lanjian Hangtian
Mission
Spacecraft
Bus & Motor
Unknown
Mass
Unknown
Launch date (UTC)
2026-06-09 (2 weeks ago)
Launch vehicle
Unknown
Launch site
Jiuquan Satellite Launch Center, China (JSC)
Object type
Payload
Rocket body
Debris
Shape & HBR
Unknown
Radar Cross Section
Medium (>0.1 m² and <1 m²)

Expand to show TLE details & history
Last TLE update: 1 day ago

TLE from 1 day ago
0 ZQ-2E DEB
1 69633U 26128H   26170.46966541  .15785737  12228-4  41525-2 0  9994
2 69633  54.5181 290.8343 0024356   6.3989 353.7378 16.26843543  1466
Epoch: 2026-06-19T11:16Z
TLE epoch observation values (Epoch: 2026-06-19T11:16:19.091Z)
Latitude
-0.00001°
Longitude
-145.94344°
Altitude
186.196 km
Speed
7.805 km/s
True Right ascension
19h 23m 20s
True Declination
0° 00' 00"
Sunlit
Object was in full shadow at epoch
Visualization orbit readout
Latitude
Unknown
Longitude
Unknown
Altitude
Unknown
Speed
Unknown
Apparent Right ascension
Unknown
Apparent Declination
Unknown
Sunlit
N/A
Visualization observer readout
Local Sidereal Time
07:11:58
Azimuth
Unknown
Elevation
Unknown
Doppler factor
Unknown
Orbital elements
Apogee altitude
217.1 km
Perigee altitude
185.052 km
Semi-major axis
6,579.213 km
Eccentricity
0.00244
Inclination
54.5181°
RAAN
290.8343°
Arg. of periapsis
6.3989°
True anomaly
353.70726°
Mean anomaly
353.7378°
Eccentric anomaly
353.72254°
Mean motion
4.06708 °/min
Orbital period
88.52 mins
BSTAR
0.0041525
Loading maneuver chart data...
Computing Atmospheric mass density...
Loading historical data...
Loading historical data...
Loading historical data...
Loading historical data...
Loading historical data...
Loading historical data...
Loading historical data...

Documentation

Showing up to 5 results
|